| time (UTC) | temp F | wind direction | speed MPH | gust MPH | rain 1hr in | rain 24hr in | rain mn in | humidity % | barometer mb |
| 20260906120504 | 60 | 71 | 1.0 | 2.0 | 0.00 | 0.00 | 0.00 | 95 | 1015.6 |
| 20260906120055 | 60 | 0 | 0.0 | 1.0 | 0.00 | 0.00 | 0.00 | 94 | 1017.1 |
| 20260906120004 | 60 | 307 | 0.0 | 1.0 | 0.00 | 0.00 | 0.00 | 95 | 1015.5 |
| 20260906115505 | 60 | 140 | 0.0 | 1.0 | 0.00 | 0.00 | 0.00 | 95 | 1015.4 |
| 20260906115004 | 60 | 74 | 0.0 | 1.0 | 0.00 | 0.00 | 0.00 | 95 | 1015.2 |
| 20260906114604 | 59 | 0 | 0.0 | 1.0 | 0.00 | 0.00 | 0.00 | 94 | 1016.7 |
| 20260906114503 | 60 | 175 | 0.0 | 1.0 | 0.00 | 0.00 | 0.00 | 95 | 1015.2 |
| 20260906114004 | 60 | 116 | 0.0 | 1.0 | 0.00 | 0.00 | 0.00 | 95 | 1015.2 |
| 20260906113101 | 59 | 0 | 0.0 | 1.0 | 0.00 | 0.00 | 0.00 | 94 | 1016.7 |
| 20260906113004 | 60 | 131 | 0.0 | 1.0 | 0.00 | 0.00 | 0.00 | 95 | 1015.0 |
| 20260906112004 | 60 | 181 | 0.0 | 2.0 | 0.00 | 0.00 | 0.00 | 95 | 1015.0 |
| 20260906111557 | 60 | 161 | 0.0 | 2.0 | 0.00 | 0.00 | 0.00 | 94 | 1016.5 |
| 20260906111503 | 60 | 180 | 1.0 | 1.0 | 0.00 | 0.00 | 0.00 | 95 | 1015.0 |
| 20260906111003 | 60 | 183 | 1.0 | 1.0 | 0.00 | 0.00 | 0.00 | 95 | 1014.9 |
| 20260906110503 | 60 | 266 | 0.0 | 1.0 | 0.00 | 0.00 | 0.00 | 95 | 1014.8 |
| 20260906110050 | 60 | 46 | 0.0 | 1.0 | 0.00 | 0.00 | 0.00 | 94 | 1016.4 |
| 20260906110004 | 60 | 105 | 0.0 | 1.0 | 0.00 | 0.00 | 0.00 | 95 | 1014.8 |
| 20260906105503 | 60 | 72 | 0.0 | 1.0 | 0.00 | 0.00 | 0.00 | 95 | 1014.8 |
| 20260906105003 | 60 | 186 | 0.0 | 1.0 | 0.00 | 0.00 | 0.00 | 95 | 1014.8 |
| 20260906104550 | 59 | 0 | 0.0 | 2.0 | 0.00 | 0.00 | 0.00 | 94 | 1016.4 |
| 20260906104503 | 60 | 181 | 0.0 | 1.0 | 0.00 | 0.00 | 0.00 | 95 | 1014.7 |
| 20260906104004 | 60 | 184 | 0.0 | 1.0 | 0.00 | 0.00 | 0.00 | 94 | 1014.6 |
| 20260906103504 | 60 | 91 | 0.0 | 1.0 | 0.00 | 0.00 | 0.00 | 94 | 1014.6 |
| 20260906103056 | 59 | 178 | 0.0 | 1.0 | 0.00 | 0.00 | 0.00 | 94 | 1016.2 |
| 20260906103004 | 60 | 201 | 0.0 | 1.0 | 0.00 | 0.00 | 0.00 | 94 | 1014.5 |
| 20260906102504 | 60 | 116 | 0.0 | 1.0 | 0.00 | 0.00 | 0.00 | 94 | 1014.5 |
| 20260906101551 | 60 | 0 | 0.0 | 2.0 | 0.00 | 0.00 | 0.00 | 94 | 1016.1 |
| 20260906101503 | 60 | 222 | 0.0 | 1.0 | 0.00 | 0.00 | 0.00 | 94 | 1014.4 |
| 20260906101003 | 60 | 177 | 1.0 | 2.0 | 0.00 | 0.00 | 0.00 | 94 | 1014.4 |
| 20260906100503 | 60 | 196 | 1.0 | 1.0 | 0.00 | 0.00 | 0.00 | 94 | 1014.3 |
| 20260906100053 | 60 | 0 | 0.0 | 2.0 | 0.00 | 0.00 | 0.00 | 94 | 1015.9 |
| 20260906100004 | 60 | 250 | 0.0 | 1.0 | 0.00 | 0.00 | 0.00 | 94 | 1014.2 |
| 20260906095504 | 60 | 184 | 1.0 | 1.0 | 0.00 | 0.00 | 0.00 | 94 | 1014.2 |
| 20260906095003 | 61 | 199 | 1.0 | 2.0 | 0.00 | 0.00 | 0.00 | 94 | 1014.1 |
| 20260906094607 | 60 | 0 | 0.0 | 2.0 | 0.00 | 0.00 | 0.00 | 94 | 1015.8 |
| 20260906094504 | 61 | 196 | 1.0 | 2.0 | 0.00 | 0.00 | 0.00 | 94 | 1014.1 |
| 20260906094004 | 61 | 223 | 1.0 | 1.0 | 0.00 | 0.00 | 0.00 | 94 | 1014.0 |
| 20260906093054 | 60 | 145 | 0.0 | 1.0 | 0.00 | 0.00 | 0.00 | 94 | 1015.8 |
| 20260906093004 | 61 | 141 | 0.0 | 1.0 | 0.00 | 0.00 | 0.00 | 94 | 1014.0 |
| 20260906092003 | 61 | 190 | 1.0 | 1.0 | 0.00 | 0.00 | 0.00 | 94 | 1013.9 |
| 20260906091603 | 61 | 135 | 0.0 | 2.0 | 0.00 | 0.00 | 0.00 | 93 | 1015.7 |
| 20260906091503 | 61 | 163 | 1.0 | 1.0 | 0.00 | 0.00 | 0.00 | 94 | 1013.8 |
| 20260906091004 | 61 | 189 | 0.0 | 2.0 | 0.00 | 0.00 | 0.00 | 94 | 1013.8 |
| 20260906090504 | 61 | 227 | 1.0 | 2.0 | 0.00 | 0.00 | 0.00 | 94 | 1013.7 |
| 20260906090054 | 61 | 0 | 0.0 | 2.0 | 0.00 | 0.00 | 0.00 | 93 | 1015.3 |
| 20260906090004 | 61 | 203 | 1.0 | 2.0 | 0.00 | 0.00 | 0.00 | 94 | 1013.6 |
| 20260906085503 | 62 | 171 | 0.0 | 1.0 | 0.00 | 0.00 | 0.00 | 94 | 1013.4 |
| 20260906085003 | 62 | 91 | 0.0 | 1.0 | 0.00 | 0.00 | 0.00 | 94 | 1013.4 |
| 20260906084559 | 61 | 0 | 0.0 | 1.0 | 0.00 | 0.00 | 0.00 | 93 | 1015.0 |
| 20260906084503 | 62 | 157 | 0.0 | 1.0 | 0.00 | 0.00 | 0.00 | 94 | 1013.3 |
| 20260906084004 | 62 | 131 | 0.0 | 1.0 | 0.00 | 0.00 | 0.00 | 94 | 1013.3 |
| 20260906083504 | 62 | 231 | 0.0 | 1.0 | 0.00 | 0.00 | 0.00 | 94 | 1013.3 |
| 20260906083054 | 62 | 0 | 0.0 | 1.0 | 0.00 | 0.00 | 0.00 | 93 | 1015.0 |
| 20260906083004 | 62 | 73 | 0.0 | 1.0 | 0.00 | 0.00 | 0.00 | 94 | 1013.2 |
| 20260906082503 | 62 | 73 | 0.0 | 0.0 | 0.00 | 0.00 | 0.00 | 94 | 1013.2 |
| 20260906082003 | 62 | 3 | 0.0 | 1.0 | 0.00 | 0.00 | 0.00 | 94 | 1013.2 |
| 20260906081551 | 62 | 0 | 0.0 | 2.0 | 0.00 | 0.00 | 0.00 | 93 | 1015.0 |
| 20260906081503 | 62 | 142 | 0.0 | 1.0 | 0.00 | 0.00 | 0.00 | 94 | 1013.2 |
| 20260906081004 | 62 | 181 | 0.0 | 2.0 | 0.00 | 0.00 | 0.00 | 94 | 1013.2 |
| 20260906080504 | 62 | 206 | 0.0 | 2.0 | 0.00 | 0.00 | 0.00 | 93 | 1013.2 |
| 20260906080053 | 62 | 0 | 0.0 | 1.0 | 0.00 | 0.00 | 0.00 | 93 | 1015.0 |
| 20260906075503 | 63 | 91 | 0.0 | 1.0 | 0.00 | 0.00 | 0.00 | 93 | 1013.3 |
| 20260906075003 | 63 | 83 | 0.0 | 1.0 | 0.00 | 0.00 | 0.00 | 93 | 1013.2 |
| 20260906074606 | 62 | 0 | 0.0 | 1.0 | 0.00 | 0.00 | 0.00 | 93 | 1015.0 |
| 20260906074503 | 63 | 325 | 0.0 | 1.0 | 0.00 | 0.00 | 0.00 | 93 | 1013.1 |
| 20260906074004 | 63 | 110 | 0.0 | 1.0 | 0.00 | 0.00 | 0.00 | 93 | 1013.0 |
| 20260906073221 | 63 | 0 | 0.0 | 1.0 | 0.00 | 0.00 | 0.00 | 93 | 1014.7 |
| 20260906072503 | 63 | 230 | 0.0 | 1.0 | 0.00 | 0.00 | 0.00 | 94 | 1013.0 |
| 20260906072003 | 63 | 219 | 0.0 | 1.0 | 0.00 | 0.00 | 0.00 | 94 | 1013.0 |
| 20260906071556 | 63 | 0 | 0.0 | 1.0 | 0.00 | 0.00 | 0.00 | 93 | 1014.8 |
| 20260906071503 | 63 | 95 | 0.0 | 0.0 | 0.00 | 0.00 | 0.00 | 94 | 1013.0 |
| 20260906070503 | 63 | 168 | 0.0 | 1.0 | 0.00 | 0.00 | 0.00 | 94 | 1013.1 |
| 20260906070004 | 63 | 190 | 1.0 | 2.0 | 0.00 | 0.00 | 0.00 | 93 | 1013.1 |
| 20260906064602 | 63 | 223 | 0.0 | 1.0 | 0.00 | 0.00 | 0.00 | 93 | 1015.0 |
| 20260906064504 | 64 | 23 | 0.0 | 1.0 | 0.00 | 0.00 | 0.00 | 93 | 1013.1 |
| 20260906064003 | 64 | 247 | 1.0 | 1.0 | 0.00 | 0.00 | 0.00 | 93 | 1013.1 |
| 20260906063058 | 63 | 0 | 0.0 | 1.0 | 0.00 | 0.00 | 0.00 | 93 | 1015.0 |
| 20260906062504 | 64 | 183 | 0.0 | 1.0 | 0.00 | 0.00 | 0.00 | 93 | 1013.2 |
| 20260906062004 | 64 | 176 | 1.0 | 2.0 | 0.00 | 0.00 | 0.00 | 93 | 1013.2 |
| 20260906061554 | 63 | 178 | 0.0 | 1.0 | 0.00 | 0.00 | 0.00 | 93 | 1015.0 |
| 20260906061504 | 64 | 190 | 1.0 | 1.0 | 0.00 | 0.00 | 0.00 | 93 | 1013.2 |
| 20260906060503 | 64 | 177 | 0.0 | 1.0 | 0.00 | 0.00 | 0.00 | 93 | 1013.3 |
| 20260906060100 | 64 | 0 | 0.0 | 2.0 | 0.00 | 0.00 | 0.00 | 93 | 1014.9 |
| 20260906060003 | 64 | 52 | 0.0 | 1.0 | 0.00 | 0.00 | 0.00 | 93 | 1013.2 |
| 20260906055503 | 64 | 186 | 0.0 | 2.0 | 0.00 | 0.00 | 0.00 | 93 | 1013.1 |
| 20260906055004 | 64 | 162 | 0.0 | 1.0 | 0.00 | 0.00 | 0.00 | 93 | 1013.2 |
| 20260906054556 | 64 | 269 | 0.0 | 2.0 | 0.00 | 0.00 | 0.00 | 93 | 1014.9 |
| 20260906054504 | 64 | 218 | 1.0 | 1.0 | 0.00 | 0.00 | 0.00 | 93 | 1013.2 |
| 20260906054004 | 64 | 165 | 1.0 | 2.0 | 0.00 | 0.00 | 0.00 | 93 | 1013.3 |
| 20260906053503 | 64 | 177 | 1.0 | 2.0 | 0.00 | 0.00 | 0.00 | 93 | 1013.2 |
| 20260906053108 | 64 | 0 | 0.0 | 1.0 | 0.00 | 0.00 | 0.00 | 93 | 1015.0 |
| 20260906053004 | 64 | 231 | 0.0 | 1.0 | 0.00 | 0.00 | 0.00 | 93 | 1013.3 |
| 20260906052504 | 64 | 175 | 0.0 | 1.0 | 0.00 | 0.00 | 0.00 | 93 | 1013.3 |
| 20260906051601 | 63 | 0 | 0.0 | 2.0 | 0.00 | 0.00 | 0.00 | 93 | 1015.1 |
| 20260906051504 | 64 | 201 | 0.0 | 1.0 | 0.00 | 0.00 | 0.00 | 93 | 1013.3 |
| 20260906051004 | 64 | 149 | 1.0 | 2.0 | 0.00 | 0.00 | 0.00 | 93 | 1013.3 |
| 20260906050503 | 64 | 139 | 0.0 | 1.0 | 0.00 | 0.00 | 0.00 | 93 | 1013.3 |
| 20260906050108 | 63 | 124 | 0.0 | 2.0 | 0.00 | 0.00 | 0.00 | 92 | 1015.0 |
| 20260906050004 | 64 | 193 | 1.0 | 2.0 | 0.00 | 0.00 | 0.00 | 93 | 1013.3 |
| 20260906045504 | 64 | 206 | 0.0 | 1.0 | 0.00 | 0.00 | 0.00 | 93 | 1013.2 |
| 20260906045004 | 64 | 243 | 1.0 | 2.0 | 0.00 | 0.00 | 0.00 | 93 | 1013.2 |
| 20260906044600 | 63 | 253 | 0.0 | 2.0 | 0.00 | 0.00 | 0.00 | 92 | 1014.8 |
| 20260906044003 | 64 | 183 | 1.0 | 2.0 | 0.00 | 0.00 | 0.00 | 93 | 1013.2 |
| 20260906043503 | 64 | 126 | 1.0 | 2.0 | 0.00 | 0.00 | 0.00 | 92 | 1013.1 |
| 20260906043101 | 64 | 0 | 0.0 | 3.0 | 0.00 | 0.00 | 0.00 | 92 | 1014.7 |
| 20260906042504 | 64 | 255 | 0.0 | 2.0 | 0.00 | 0.00 | 0.00 | 92 | 1013.0 |
| 20260906042003 | 64 | 33 | 0.0 | 1.0 | 0.00 | 0.00 | 0.00 | 92 | 1013.1 |
| 20260906041603 | 64 | 0 | 0.0 | 1.0 | 0.00 | 0.00 | 0.00 | 91 | 1014.8 |
| 20260906041503 | 64 | 165 | 1.0 | 1.0 | 0.00 | 0.00 | 0.00 | 92 | 1013.1 |
| 20260906041004 | 64 | 150 | 0.0 | 1.0 | 0.00 | 0.00 | 0.00 | 92 | 1013.1 |
| 20260906040503 | 64 | 106 | 0.0 | 1.0 | 0.00 | 0.00 | 0.00 | 91 | 1012.9 |
| 20260906040056 | 64 | 135 | 0.0 | 2.0 | 0.00 | 0.00 | 0.00 | 91 | 1014.6 |
| 20260906035503 | 65 | 182 | 1.0 | 2.0 | 0.00 | 0.00 | 0.00 | 91 | 1012.9 |
| 20260906035004 | 65 | 172 | 1.0 | 2.0 | 0.00 | 0.00 | 0.00 | 91 | 1012.9 |
| 20260906034605 | 64 | 190 | 0.0 | 1.0 | 0.00 | 0.00 | 0.00 | 91 | 1014.6 |
| 20260906034504 | 65 | 223 | 0.0 | 1.0 | 0.00 | 0.00 | 0.00 | 91 | 1012.8 |
| 20260906034003 | 65 | 227 | 1.0 | 1.0 | 0.00 | 0.00 | 0.00 | 91 | 1012.8 |
| 20260906033503 | 65 | 97 | 0.0 | 1.0 | 0.00 | 0.00 | 0.00 | 91 | 1012.9 |
| 20260906033109 | 65 | 0 | 0.0 | 1.0 | 0.00 | 0.00 | 0.00 | 90 | 1014.5 |
| 20260906033004 | 65 | 118 | 0.0 | 1.0 | 0.00 | 0.00 | 0.00 | 91 | 1012.8 |
| 20260906032504 | 65 | 87 | 0.0 | 1.0 | 0.00 | 0.00 | 0.00 | 91 | 1012.9 |
| 20260906032004 | 65 | 127 | 0.0 | 1.0 | 0.00 | 0.00 | 0.00 | 91 | 1012.9 |
| 20260906031554 | 65 | 0 | 0.0 | 1.0 | 0.00 | 0.00 | 0.00 | 90 | 1014.6 |
| 20260906031503 | 65 | 109 | 1.0 | 1.0 | 0.00 | 0.00 | 0.00 | 90 | 1012.9 |
| 20260906030503 | 65 | 194 | 0.0 | 1.0 | 0.00 | 0.00 | 0.00 | 90 | 1012.8 |
| 20260906030004 | 65 | 169 | 0.0 | 1.0 | 0.00 | 0.00 | 0.00 | 90 | 1012.7 |
| 20260906025504 | 65 | 48 | 0.0 | 1.0 | 0.00 | 0.00 | 0.00 | 90 | 1012.6 |
| 20260906025004 | 65 | 26 | 0.0 | 1.0 | 0.00 | 0.00 | 0.00 | 90 | 1012.7 |
| 20260906024558 | 65 | 0 | 0.0 | 1.0 | 0.00 | 0.00 | 0.00 | 89 | 1014.4 |
| 20260906024503 | 65 | 93 | 1.0 | 1.0 | 0.00 | 0.00 | 0.00 | 90 | 1012.7 |
| 20260906024003 | 66 | 180 | 1.0 | 1.0 | 0.00 | 0.00 | 0.00 | 90 | 1012.6 |
| 20260906023504 | 66 | 118 | 0.0 | 1.0 | 0.00 | 0.00 | 0.00 | 89 | 1012.6 |
| 20260906023103 | 65 | 0 | 0.0 | 1.0 | 0.00 | 0.00 | 0.00 | 89 | 1014.2 |
| 20260906023004 | 66 | 86 | 1.0 | 1.0 | 0.00 | 0.00 | 0.00 | 89 | 1012.5 |
| 20260906022504 | 66 | 38 | 1.0 | 1.0 | 0.00 | 0.00 | 0.00 | 89 | 1012.6 |
| 20260906022004 | 66 | 274 | 0.0 | 1.0 | 0.00 | 0.00 | 0.00 | 89 | 1012.5 |
| 20260906021606 | 65 | 0 | 0.0 | 1.0 | 0.00 | 0.00 | 0.00 | 88 | 1014.2 |
| 20260906021503 | 66 | 219 | 1.0 | 1.0 | 0.00 | 0.00 | 0.00 | 89 | 1012.6 |
| 20260906021003 | 66 | 51 | 0.0 | 1.0 | 0.00 | 0.00 | 0.00 | 88 | 1012.5 |
| 20260906020503 | 66 | 35 | 0.0 | 1.0 | 0.00 | 0.00 | 0.00 | 88 | 1012.5 |
| 20260906020107 | 66 | 0 | 0.0 | 1.0 | 0.00 | 0.00 | 0.00 | 87 | 1014.2 |
| 20260906020004 | 66 | 74 | 0.0 | 1.0 | 0.00 | 0.00 | 0.00 | 88 | 1012.6 |
| 20260906015503 | 66 | 334 | 0.0 | 1.0 | 0.00 | 0.00 | 0.00 | 87 | 1012.6 |
| 20260906015004 | 66 | 128 | 0.0 | 1.0 | 0.00 | 0.00 | 0.00 | 87 | 1012.5 |
| 20260906014555 | 66 | 0 | 0.0 | 1.0 | 0.00 | 0.00 | 0.00 | 86 | 1014.2 |
| 20260906014503 | 67 | 152 | 0.0 | 1.0 | 0.00 | 0.00 | 0.00 | 87 | 1012.5 |
| 20260906014004 | 67 | 137 | 0.0 | 1.0 | 0.00 | 0.00 | 0.00 | 86 | 1012.4 |
| 20260906013110 | 67 | 0 | 0.0 | 1.0 | 0.00 | 0.00 | 0.00 | 85 | 1014.1 |
| 20260906013004 | 67 | 55 | 0.0 | 1.0 | 0.00 | 0.00 | 0.00 | 86 | 1012.3 |
| 20260906012503 | 67 | 43 | 0.0 | 0.0 | 0.00 | 0.00 | 0.00 | 85 | 1012.3 |
| 20260906012004 | 68 | 16 | 0.0 | 0.0 | 0.00 | 0.00 | 0.00 | 85 | 1012.3 |
| 20260906011604 | 67 | 0 | 0.0 | 1.0 | 0.00 | 0.00 | 0.00 | 84 | 1014.1 |
| 20260906011504 | 68 | 111 | 0.0 | 1.0 | 0.00 | 0.00 | 0.00 | 85 | 1012.3 |
| 20260906011003 | 68 | 47 | 0.0 | 1.0 | 0.00 | 0.00 | 0.00 | 85 | 1012.3 |
| 20260906010503 | 68 | 95 | 0.0 | 1.0 | 0.00 | 0.00 | 0.00 | 84 | 1012.2 |
| 20260906010100 | 68 | 0 | 0.0 | 1.0 | 0.00 | 0.00 | 0.00 | 83 | 1014.1 |
| 20260906010004 | 68 | 78 | 0.0 | 1.0 | 0.00 | 0.00 | 0.00 | 84 | 1012.3 |
| 20260906005504 | 68 | 30 | 0.0 | 0.0 | 0.00 | 0.00 | 0.00 | 83 | 1012.3 |
| 20260906004604 | 68 | 0 | 0.0 | 1.0 | 0.00 | 0.00 | 0.00 | 82 | 1014.0 |
| 20260906004503 | 68 | 254 | 0.0 | 1.0 | 0.00 | 0.00 | 0.00 | 82 | 1012.3 |
| 20260906004003 | 69 | 150 | 0.0 | 1.0 | 0.00 | 0.00 | 0.00 | 82 | 1012.2 |
| 20260906003504 | 69 | 91 | 0.0 | 1.0 | 0.00 | 0.00 | 0.00 | 82 | 1012.1 |
| 20260906003103 | 68 | 0 | 0.0 | 1.0 | 0.00 | 0.00 | 0.00 | 81 | 1013.8 |
| 20260906003004 | 69 | 75 | 0.0 | 0.0 | 0.00 | 0.00 | 0.00 | 81 | 1012.2 |
| 20260906002003 | 69 | 125 | 0.0 | 1.0 | 0.00 | 0.00 | 0.00 | 80 | 1012.1 |
| 20260906001555 | 69 | 0 | 0.0 | 1.0 | 0.00 | 0.00 | 0.00 | 80 | 1013.8 |
| 20260906001503 | 70 | 81 | 0.0 | 1.0 | 0.00 | 0.00 | 0.00 | 80 | 1012.2 |
| 20260906000504 | 70 | 94 | 0.0 | 1.0 | 0.00 | 0.00 | 0.00 | 81 | 1012.3 |
| 20260906000100 | 69 | 0 | 0.0 | 1.0 | 0.00 | 0.00 | 0.00 | 79 | 1013.9 |
| 20260906000004 | 70 | 334 | 0.0 | 1.0 | 0.00 | 0.00 | 0.00 | 80 | 1012.3 |
| 20260905235504 | 70 | 200 | 0.0 | 1.0 | 0.00 | 0.00 | 0.00 | 79 | 1012.3 |
| 20260905235004 | 70 | 66 | 0.0 | 1.0 | 0.00 | 0.00 | 0.00 | 79 | 1012.2 |
| 20260905234554 | 70 | 340 | 0.0 | 1.0 | 0.00 | 0.00 | 0.00 | 78 | 1013.8 |
| 20260905234504 | 70 | 114 | 0.0 | 1.0 | 0.00 | 0.00 | 0.00 | 79 | 1012.2 |
| 20260905234004 | 70 | 141 | 0.0 | 1.0 | 0.00 | 0.00 | 0.00 | 79 | 1012.2 |
| 20260905233503 | 70 | 30 | 0.0 | 1.0 | 0.00 | 0.00 | 0.00 | 79 | 1012.2 |
| 20260905233103 | 70 | 303 | 0.0 | 1.0 | 0.00 | 0.00 | 0.00 | 78 | 1013.9 |
| 20260905233004 | 70 | 341 | 0.0 | 1.0 | 0.00 | 0.00 | 0.00 | 78 | 1012.2 |
| 20260905232503 | 71 | 69 | 0.0 | 1.0 | 0.00 | 0.00 | 0.00 | 78 | 1012.3 |
| 20260905232004 | 71 | 324 | 0.0 | 1.0 | 0.00 | 0.00 | 0.00 | 77 | 1012.3 |
| 20260905231603 | 70 | 117 | 0.0 | 2.0 | 0.00 | 0.00 | 0.00 | 77 | 1013.9 |
| 20260905231503 | 71 | 54 | 0.0 | 1.0 | 0.00 | 0.00 | 0.00 | 77 | 1012.3 |
| 20260905231004 | 71 | 41 | 0.0 | 2.0 | 0.00 | 0.00 | 0.00 | 77 | 1012.2 |
| 20260905230504 | 71 | 18 | 0.0 | 1.0 | 0.00 | 0.00 | 0.00 | 77 | 1012.2 |
| 20260905230100 | 71 | 0 | 0.0 | 2.0 | 0.00 | 0.00 | 0.00 | 76 | 1013.9 |
| 20260905230004 | 71 | 72 | 0.0 | 2.0 | 0.00 | 0.00 | 0.00 | 77 | 1012.3 |
| 20260905225504 | 71 | 65 | 0.0 | 2.0 | 0.00 | 0.00 | 0.00 | 76 | 1012.3 |
| 20260905225003 | 71 | 38 | 1.0 | 2.0 | 0.00 | 0.00 | 0.00 | 76 | 1012.3 |
| 20260905224604 | 71 | 303 | 0.0 | 2.0 | 0.00 | 0.00 | 0.00 | 75 | 1014.0 |
| 20260905224504 | 72 | 2 | 1.0 | 2.0 | 0.00 | 0.00 | 0.00 | 76 | 1012.4 |
| 20260905224004 | 72 | 73 | 1.0 | 2.0 | 0.00 | 0.00 | 0.00 | 75 | 1012.3 |
| 20260905223504 | 72 | 338 | 0.0 | 1.0 | 0.00 | 0.00 | 0.00 | 74 | 1012.3 |
| 20260905223103 | 72 | 0 | 0.0 | 2.0 | 0.00 | 0.00 | 0.00 | 73 | 1013.8 |
| 20260905223004 | 73 | 354 | 0.0 | 2.0 | 0.00 | 0.00 | 0.00 | 73 | 1012.2 |
| 20260905222503 | 73 | 86 | 0.0 | 2.0 | 0.00 | 0.00 | 0.00 | 73 | 1012.2 |
| 20260905222003 | 73 | 352 | 0.0 | 2.0 | 0.00 | 0.00 | 0.00 | 73 | 1012.1 |
| 20260905221604 | 73 | 331 | 1.0 | 3.0 | 0.00 | 0.00 | 0.00 | 71 | 1013.8 |
| 20260905221503 | 73 | 346 | 1.0 | 3.0 | 0.00 | 0.00 | 0.00 | 71 | 1012.1 |
| 20260905221003 | 74 | 348 | 1.0 | 2.0 | 0.00 | 0.00 | 0.00 | 71 | 1012.0 |
| 20260905220504 | 74 | 48 | 2.0 | 3.0 | 0.00 | 0.00 | 0.00 | 72 | 1011.9 |
| 20260905220059 | 74 | 314 | 1.0 | 3.0 | 0.00 | 0.00 | 0.00 | 70 | 1013.6 |
| 20260905220004 | 74 | 11 | 1.0 | 3.0 | 0.00 | 0.00 | 0.00 | 70 | 1012.0 |
| 20260905215503 | 75 | 337 | 1.0 | 2.0 | 0.00 | 0.00 | 0.00 | 68 | 1011.9 |
| 20260905215004 | 76 | 36 | 1.0 | 3.0 | 0.00 | 0.00 | 0.00 | 66 | 1011.7 |
| 20260905214600 | 76 | 46 | 0.0 | 2.0 | 0.00 | 0.00 | 0.00 | 64 | 1013.5 |
| 20260905214503 | 77 | 0 | 1.0 | 2.0 | 0.00 | 0.00 | 0.00 | 65 | 1011.8 |
| 20260905213503 | 77 | 335 | 2.0 | 3.0 | 0.00 | 0.00 | 0.00 | 65 | 1011.7 |
| 20260905213105 | 79 | 63 | 1.0 | 3.0 | 0.00 | 0.00 | 0.00 | 63 | 1013.4 |
| 20260905212503 | 77 | 126 | 1.0 | 3.0 | 0.00 | 0.00 | 0.00 | 67 | 1011.6 |
| 20260905212003 | 76 | 73 | 1.0 | 3.0 | 0.00 | 0.00 | 0.00 | 68 | 1011.6 |
| 20260905211559 | 76 | 0 | 1.0 | 3.0 | 0.00 | 0.00 | 0.00 | 65 | 1013.3 |
| 20260905211503 | 76 | 319 | 1.0 | 2.0 | 0.00 | 0.00 | 0.00 | 68 | 1011.5 |
| 20260905211004 | 77 | 338 | 2.0 | 3.0 | 0.00 | 0.00 | 0.00 | 63 | 1011.5 |
| 20260905210504 | 76 | 47 | 2.0 | 5.0 | 0.00 | 0.00 | 0.00 | 65 | 1011.5 |
| 20260905210121 | 77 | 322 | 1.0 | 3.0 | 0.00 | 0.00 | 0.00 | 61 | 1013.2 |
| 20260905205504 | 79 | 313 | 1.0 | 2.0 | 0.00 | 0.00 | 0.00 | 59 | 1011.4 |
| 20260905205004 | 76 | 309 | 1.0 | 2.0 | 0.00 | 0.00 | 0.00 | 65 | 1011.5 |
| 20260905204603 | 75 | 1 | 1.0 | 3.0 | 0.00 | 0.00 | 0.00 | 65 | 1013.2 |
| 20260905204504 | 75 | 14 | 2.0 | 3.0 | 0.00 | 0.00 | 0.00 | 65 | 1011.5 |
| 20260905204003 | 79 | 340 | 2.0 | 3.0 | 0.00 | 0.00 | 0.00 | 60 | 1011.4 |
| 20260905203055 | 79 | 321 | 1.0 | 4.0 | 0.00 | 0.00 | 0.00 | 57 | 1013.2 |
| 20260905203003 | 81 | 334 | 1.0 | 3.0 | 0.00 | 0.00 | 0.00 | 57 | 1011.5 |
| 20260905202503 | 80 | 1 | 2.0 | 3.0 | 0.00 | 0.00 | 0.00 | 59 | 1011.5 |
| 20260905202004 | 81 | 67 | 1.0 | 5.0 | 0.00 | 0.00 | 0.00 | 57 | 1011.5 |
| 20260905201556 | 78 | 59 | 2.0 | 5.0 | 0.00 | 0.00 | 0.00 | 60 | 1013.2 |
| 20260905201504 | 80 | 326 | 2.0 | 3.0 | 0.00 | 0.00 | 0.00 | 58 | 1011.6 |
| 20260905201004 | 80 | 41 | 1.0 | 3.0 | 0.00 | 0.00 | 0.00 | 59 | 1011.6 |
| 20260905200503 | 81 | 334 | 2.0 | 3.0 | 0.00 | 0.00 | 0.00 | 54 | 1011.5 |
| 20260905200112 | 83 | 25 | 1.0 | 4.0 | 0.00 | 0.00 | 0.00 | 53 | 1013.2 |
| 20260905200003 | 83 | 66 | 1.0 | 3.0 | 0.00 | 0.00 | 0.00 | 54 | 1011.5 |
| 20260905195503 | 82 | 58 | 2.0 | 3.0 | 0.00 | 0.00 | 0.00 | 53 | 1011.6 |
| 20260905195004 | 81 | 27 | 1.0 | 3.0 | 0.00 | 0.00 | 0.00 | 55 | 1011.6 |
| 20260905194616 | 82 | 35 | 1.0 | 3.0 | 0.00 | 0.00 | 0.00 | 53 | 1013.2 |
| 20260905194504 | 81 | 97 | 1.0 | 2.0 | 0.00 | 0.00 | 0.00 | 54 | 1011.5 |
| 20260905194004 | 80 | 23 | 1.0 | 3.0 | 0.00 | 0.00 | 0.00 | 56 | 1011.6 |
| 20260905193503 | 80 | 6 | 2.0 | 3.0 | 0.00 | 0.00 | 0.00 | 56 | 1011.6 |
| 20260905193101 | 81 | 277 | 1.0 | 3.0 | 0.00 | 0.00 | 0.00 | 55 | 1013.3 |
| 20260905193003 | 82 | 309 | 1.0 | 3.0 | 0.00 | 0.00 | 0.00 | 55 | 1011.6 |
| 20260905192503 | 79 | 6 | 2.0 | 3.0 | 0.00 | 0.00 | 0.00 | 57 | 1011.6 |
| 20260905192004 | 77 | 1 | 1.0 | 3.0 | 0.00 | 0.00 | 0.00 | 61 | 1011.4 |
| 20260905191608 | 78 | 296 | 1.0 | 4.0 | 0.00 | 0.00 | 0.00 | 55 | 1013.3 |
| 20260905191504 | 79 | 290 | 1.0 | 3.0 | 0.00 | 0.00 | 0.00 | 57 | 1011.6 |
| 20260905190503 | 78 | 295 | 2.0 | 6.0 | 0.00 | 0.00 | 0.00 | 62 | 1011.6 |
| 20260905190107 | 78 | 15 | 1.0 | 3.0 | 0.00 | 0.00 | 0.00 | 58 | 1013.5 |
| 20260905190003 | 78 | 45 | 1.0 | 3.0 | 0.00 | 0.00 | 0.00 | 60 | 1011.6 |
| 20260905185503 | 78 | 297 | 2.0 | 3.0 | 0.00 | 0.00 | 0.00 | 61 | 1011.6 |
| 20260905185003 | 77 | 181 | 1.0 | 3.0 | 0.00 | 0.00 | 0.00 | 63 | 1011.5 |
| 20260905184617 | 76 | 39 | 2.0 | 4.0 | 0.00 | 0.00 | 0.00 | 58 | 1013.4 |
| 20260905184503 | 78 | 333 | 2.0 | 3.0 | 0.00 | 0.00 | 0.00 | 59 | 1011.6 |
| 20260905183504 | 79 | 271 | 2.0 | 3.0 | 0.00 | 0.00 | 0.00 | 59 | 1011.5 |
| 20260905183106 | 83 | 283 | 1.0 | 4.0 | 0.00 | 0.00 | 0.00 | 53 | 1013.3 |
| 20260905183003 | 83 | 60 | 1.0 | 3.0 | 0.00 | 0.00 | 0.00 | 52 | 1011.6 |
| 20260905182503 | 81 | 36 | 2.0 | 3.0 | 0.00 | 0.00 | 0.00 | 55 | 1011.6 |
| 20260905182004 | 81 | 346 | 1.0 | 3.0 | 0.00 | 0.00 | 0.00 | 55 | 1011.6 |
| 20260905181607 | 80 | 89 | 1.0 | 4.0 | 0.00 | 0.00 | 0.00 | 58 | 1013.4 |
| 20260905181504 | 79 | 77 | 2.0 | 3.0 | 0.00 | 0.00 | 0.00 | 59 | 1011.6 |
| 20260905180504 | 78 | 276 | 1.0 | 3.0 | 0.00 | 0.00 | 0.00 | 61 | 1011.5 |
| 20260905180103 | 79 | 331 | 1.0 | 4.0 | 0.00 | 0.00 | 0.00 | 58 | 1013.3 |
| 20260905180004 | 81 | 13 | 1.0 | 3.0 | 0.00 | 0.00 | 0.00 | 58 | 1011.5 |
| 20260905175004 | 78 | 342 | 1.0 | 3.0 | 0.00 | 0.00 | 0.00 | 63 | 1011.6 |
| 20260905174555 | 76 | 0 | 0.0 | 4.0 | 0.00 | 0.00 | 0.00 | 64 | 1013.4 |
| 20260905174504 | 75 | 56 | 1.0 | 2.0 | 0.00 | 0.00 | 0.00 | 65 | 1011.6 |
| 20260905174004 | 78 | 354 | 2.0 | 3.0 | 0.00 | 0.00 | 0.00 | 61 | 1011.6 |
| 20260905173504 | 78 | 304 | 1.0 | 3.0 | 0.00 | 0.00 | 0.00 | 62 | 1011.5 |
| 20260905173116 | 77 | 331 | 1.0 | 4.0 | 0.00 | 0.00 | 0.00 | 61 | 1013.4 |
| 20260905172504 | 78 | 124 | 2.0 | 3.0 | 0.00 | 0.00 | 0.00 | 61 | 1011.5 |
| 20260905171558 | 79 | 120 | 1.0 | 4.0 | 0.00 | 0.00 | 0.00 | 60 | 1013.3 |
| 20260905171504 | 79 | 24 | 1.0 | 3.0 | 0.00 | 0.00 | 0.00 | 62 | 1011.6 |
| 20260905171003 | 76 | 0 | 1.0 | 3.0 | 0.00 | 0.00 | 0.00 | 65 | 1011.6 |
| 20260905170504 | 79 | 44 | 2.0 | 3.0 | 0.00 | 0.00 | 0.00 | 60 | 1011.5 |
| 20260905170100 | 75 | 1 | 1.0 | 5.0 | 0.00 | 0.00 | 0.00 | 66 | 1013.3 |
| 20260905165504 | 75 | 329 | 2.0 | 5.0 | 0.00 | 0.00 | 0.00 | 65 | 1011.5 |
| 20260905165004 | 74 | 16 | 2.0 | 5.0 | 0.00 | 0.00 | 0.00 | 69 | 1011.5 |
| 20260905164555 | 74 | 336 | 1.0 | 4.0 | 0.00 | 0.00 | 0.00 | 66 | 1013.4 |
| 20260905163113 | 77 | 1 | 1.0 | 3.0 | 0.00 | 0.00 | 0.00 | 61 | 1013.3 |
| 20260905163004 | 78 | 0 | 2.0 | 3.0 | 0.00 | 0.00 | 0.00 | 61 | 1011.6 |
| 20260905162504 | 79 | 34 | 1.0 | 3.0 | 0.00 | 0.00 | 0.00 | 62 | 1011.7 |
| 20260905162004 | 76 | 44 | 2.0 | 3.0 | 0.00 | 0.00 | 0.00 | 67 | 1011.6 |
| 20260905161559 | 76 | 1 | 1.0 | 3.0 | 0.00 | 0.00 | 0.00 | 65 | 1013.4 |
| 20260905161503 | 77 | 52 | 1.0 | 3.0 | 0.00 | 0.00 | 0.00 | 65 | 1011.6 |
| 20260905161003 | 75 | 18 | 1.0 | 3.0 | 0.00 | 0.00 | 0.00 | 66 | 1011.6 |
| 20260905160503 | 76 | 20 | 1.0 | 3.0 | 0.00 | 0.00 | 0.00 | 64 | 1011.6 |
| 20260905160056 | 77 | 344 | 1.0 | 4.0 | 0.00 | 0.00 | 0.00 | 60 | 1013.4 |
| 20260905160003 | 78 | 338 | 1.0 | 3.0 | 0.00 | 0.00 | 0.00 | 61 | 1011.9 |
| 20260905155503 | 76 | 322 | 1.0 | 3.0 | 0.00 | 0.00 | 0.00 | 67 | 1011.9 |
| 20260905155004 | 75 | 355 | 2.0 | 3.0 | 0.00 | 0.00 | 0.00 | 66 | 1011.9 |
| 20260905154617 | 76 | 102 | 1.0 | 3.0 | 0.00 | 0.00 | 0.00 | 66 | 1013.6 |
| 20260905154004 | 73 | 58 | 1.0 | 3.0 | 0.00 | 0.00 | 0.00 | 72 | 1012.0 |
| 20260905153504 | 73 | 117 | 1.0 | 3.0 | 0.00 | 0.00 | 0.00 | 69 | 1012.0 |
| 20260905153109 | 73 | 269 | 1.0 | 3.0 | 0.00 | 0.00 | 0.00 | 69 | 1013.7 |
| 20260905152504 | 74 | 8 | 1.0 | 3.0 | 0.00 | 0.00 | 0.00 | 71 | 1012.0 |
| 20260905151608 | 72 | 105 | 0.0 | 3.0 | 0.00 | 0.00 | 0.00 | 71 | 1013.6 |
| 20260905151004 | 72 | 344 | 1.0 | 3.0 | 0.00 | 0.00 | 0.00 | 72 | 1011.9 |
| 20260905150503 | 72 | 52 | 2.0 | 5.0 | 0.00 | 0.00 | 0.00 | 71 | 1011.8 |
| 20260905150057 | 72 | 340 | 1.0 | 4.0 | 0.00 | 0.00 | 0.00 | 71 | 1013.6 |
| 20260905150004 | 73 | 323 | 1.0 | 3.0 | 0.00 | 0.00 | 0.00 | 72 | 1011.8 |
| 20260905145504 | 72 | 57 | 1.0 | 3.0 | 0.00 | 0.00 | 0.00 | 74 | 1011.8 |
| 20260905145004 | 72 | 356 | 1.0 | 3.0 | 0.00 | 0.00 | 0.00 | 73 | 1011.8 |
| 20260905144554 | 72 | 326 | 1.0 | 4.0 | 0.00 | 0.00 | 0.00 | 73 | 1013.6 |
| 20260905144504 | 72 | 69 | 1.0 | 3.0 | 0.00 | 0.00 | 0.00 | 75 | 1011.8 |
| 20260905144004 | 71 | 54 | 2.0 | 3.0 | 0.00 | 0.00 | 0.00 | 74 | 1011.8 |
| 20260905143101 | 71 | 51 | 1.0 | 4.0 | 0.00 | 0.00 | 0.00 | 75 | 1013.5 |
| 20260905143004 | 71 | 49 | 2.0 | 3.0 | 0.00 | 0.00 | 0.00 | 75 | 1011.8 |
| 20260905142503 | 71 | 34 | 1.0 | 3.0 | 0.00 | 0.00 | 0.00 | 77 | 1011.7 |
| 20260905142003 | 71 | 10 | 2.0 | 3.0 | 0.00 | 0.00 | 0.00 | 80 | 1011.7 |
| 20260905141600 | 70 | 63 | 1.0 | 3.0 | 0.00 | 0.00 | 0.00 | 82 | 1013.5 |
| 20260905141003 | 69 | 25 | 1.0 | 3.0 | 0.00 | 0.00 | 0.00 | 83 | 1011.8 |
| 20260905140503 | 69 | 61 | 1.0 | 3.0 | 0.00 | 0.00 | 0.00 | 83 | 1011.8 |
| 20260905140106 | 69 | 0 | 1.0 | 3.0 | 0.00 | 0.00 | 0.00 | 84 | 1013.6 |
| 20260905135006 | 68 | 48 | 1.0 | 2.0 | 0.00 | 0.00 | 0.00 | 91 | 1011.7 |
| 20260905134602 | 67 | 0 | 1.0 | 3.0 | 0.00 | 0.00 | 0.00 | 88 | 1013.6 |
| 20260905134503 | 68 | 315 | 1.0 | 3.0 | 0.00 | 0.00 | 0.00 | 89 | 1011.8 |
| 20260905134004 | 67 | 351 | 1.0 | 2.0 | 0.00 | 0.00 | 0.00 | 91 | 1011.7 |
| 20260905133504 | 66 | 15 | 1.0 | 3.0 | 0.00 | 0.00 | 0.00 | 92 | 1011.7 |
| 20260905133059 | 66 | 1 | 1.0 | 3.0 | 0.00 | 0.00 | 0.00 | 93 | 1013.5 |
| 20260905133004 | 66 | 43 | 1.0 | 2.0 | 0.00 | 0.00 | 0.00 | 93 | 1011.7 |
| 20260905132503 | 66 | 36 | 1.0 | 3.0 | 0.00 | 0.00 | 0.00 | 94 | 1011.7 |
| 20260905132003 | 66 | 33 | 1.0 | 3.0 | 0.00 | 0.00 | 0.00 | 95 | 1011.7 |
| 20260905131603 | 65 | 63 | 1.0 | 3.0 | 0.00 | 0.00 | 0.00 | 95 | 1013.5 |
| 20260905131503 | 65 | 26 | 1.0 | 2.0 | 0.00 | 0.00 | 0.00 | 95 | 1011.6 |
| 20260905131004 | 65 | 104 | 1.0 | 2.0 | 0.00 | 0.00 | 0.00 | 96 | 1011.7 |
| 20260905130504 | 65 | 226 | 1.0 | 2.0 | 0.00 | 0.00 | 0.00 | 96 | 1011.8 |
| 20260905130107 | 64 | 0 | 0.0 | 3.0 | 0.00 | 0.00 | 0.00 | 95 | 1013.6 |
| 20260905130004 | 65 | 74 | 1.0 | 2.0 | 0.00 | 0.00 | 0.00 | 96 | 1011.9 |
| 20260905125504 | 65 | 132 | 0.0 | 2.0 | 0.00 | 0.00 | 0.00 | 96 | 1011.9 |
| 20260905124601 | 64 | 0 | 0.0 | 2.0 | 0.00 | 0.00 | 0.00 | 96 | 1013.7 |
| 20260905124504 | 64 | 116 | 0.0 | 2.0 | 0.00 | 0.00 | 0.00 | 96 | 1012.1 |
| 20260905123504 | 63 | 178 | 1.0 | 2.0 | 0.00 | 0.00 | 0.00 | 96 | 1012.0 |
| 20260905123102 | 62 | 135 | 0.0 | 2.0 | 0.00 | 0.00 | 0.00 | 95 | 1013.7 |
| 20260905123003 | 63 | 51 | 0.0 | 2.0 | 0.00 | 0.00 | 0.00 | 96 | 1011.9 |
| 20260905122503 | 62 | 115 | 0.0 | 1.0 | 0.00 | 0.00 | 0.00 | 96 | 1011.9 |
| 20260905122003 | 62 | 123 | 1.0 | 2.0 | 0.00 | 0.00 | 0.00 | 96 | 1012.0 |
| 20260905121557 | 62 | 117 | 0.0 | 2.0 | 0.00 | 0.00 | 0.00 | 95 | 1013.6 |
| 20260905121503 | 62 | 79 | 0.0 | 2.0 | 0.00 | 0.00 | 0.00 | 96 | 1011.9 |
| 20260905121003 | 62 | 79 | 0.0 | 2.0 | 0.00 | 0.00 | 0.00 | 96 | 1011.9 |